Regional Weather Roundup
Issued by NWS Sioux Falls, SD

Home | Current Version | Previous Version | Graphics & Text | Print | Product List | Glossary Off
Versions: 1 2 3 4 5 6 7 8 9 10 11 12 13 14 15 16 17 18 19 20 21 22 23 24 25 26 27 28 29 30 31 32 33 34 35 36 37 38 39 40 41 42 43 44 45 46 47 48 49 50

000
ASUS43 KFSD 271002
RWRFSD

WEATHER ROUNDUP FOR SE SOUTH DAKOTA/SW MINNESOTA/NW IOWA
NATIONAL WEATHER SERVICE SIOUX FALLS SD
500 AM CDT WED AUG 27 2014

NOTE: "FAIR" INDICATES FEW OR NO CLOUDS BELOW 12,000 FEET WITH NO
SIGNIFICANT WEATHER AND OR OBSTRUCTIONS TO VISIBILITY.


SDZ038>040-050-052>070-271100-
SOUTHEAST SOUTH DAKOTA

CITY           SKY/WX    TMP DP  RH WIND       PRES   REMARKS
CHAMBERLAIN    CLOUDY    61  60  96 SE7       30.12S
HURON          CLOUDY    59  57  93 E6        30.14F
MADISON        FAIR      54  54 100 NE6       30.17S
MITCHELL       PTCLDY    58  56  93 NE3       30.15R
SIOUX FALLS    PTCLDY    58  56  93 E6        30.15F
WINNER         CLOUDY    67  65  93 S9        30.11S FOG
YANKTON        CLEAR     59  57  94 E6        30.13F
$$

MNZ071-072-080-081-089-090-097-098-271100-
SOUTHWEST MINNESOTA

CITY           SKY/WX    TMP DP  RH WIND       PRES   REMARKS
FAIRMONT       PTCLDY    55  52  88 N3        30.18S
JACKSON        PTCLDY    55  52  88 NE3       30.19S
LUVERNE        CLEAR     59  54  82 CALM      30.17S
MARSHALL       CLEAR     57  54  88 NE5       30.17S
MONTEVIDEO     PTCLDY    57  55  94 CALM      30.19F
PIPESTONE      PTCLDY    57  55  94 CALM      30.17S
REDWOOD FALLS  CLEAR     60  57  89 NE3       30.18S
TRACY          CLEAR     58  56  94 CALM      30.18S
WINDOM         CLEAR     57  55  94 CALM      30.18F
WORTHINGTON    CLEAR     55  54  94 NE3       30.19S
$$

IAZ001>003-012>014-020>022-031-032-NEZ013-014-SDZ071-271100-
NORTHWEST IOWA

CITY           SKY/WX    TMP DP  RH WIND       PRES   REMARKS
CHEROKEE       MOCLDY    59  59  99 NE3       30.16S
DENISON        CLOUDY    64  64 100 CALM      30.12S
ESTHERVILLE    PTCLDY    56  55  97 N3        30.17F
LE MARS        PTCLDY    59  59 100 N5        30.15F
ORANGE CITY    PTCLDY    61  55  82 E6        30.16F
SHELDON        MOCLDY    55  55 100 E7        30.15F
SIOUX CITY     CLOUDY    65  60  84 E7        30.13F
SPENCER        CLOUDY    59  56  89 NE5       30.18S
STORM LAKE     MOCLDY    61  61 100 NE7       30.16S
$$

ABBREVIATIONS USED IN REMARKS
   TC - TEMPERATURE IN CELSIUS
  WCI - WIND CHILL INDEX
   HX - HEAT INDEX
  VSB - VISIBILITY



USA.gov is the U.S. government's official web portal to all federal, state and local government web resources and services.